Location: Pedholt
(56.0260°N, 10.2097°E)
Time: 06:16:34
(UTC+00:00)

SL-08 R/B - Pass Details

Date: 14 July 2020
Orbit: 675 x 738 km, 98.4° (Epoch: 07 August)

Event Time Altitude Azimuth Distance (km) Brightness Sun altitude
Rises 01:24:09 0° 151° (SSE) 3,084 6.3 -8.4°
Reaches altitude 10° 01:26:23 10° 149° (SSE) 2,179 5.6 -8.2°
Maximum altitude 01:31:07 65° 68° (ENE) 795 3.9 -7.9°
Drops below altitude 10° 01:35:58 10° 348° (NNW) 2,234 6.7 -7.6°
Sets 01:38:17 0° 346° (NNW) 3,168 7.4 -7.4°
